GW7174 Weather Reports


Display with metric or nautical units.
time (UTC)temp
F
wind
direction
speed
MPH
gust
MPH
rain 1hr
in
rain 24hr
in
rain mn
in
humidity
%
barometer
mb
20260509201721 73 346 2.0 2.0 0.00 0.00 0.00 43 1007.9
20260509201218 74 91 3.0 3.0 0.00 0.00 0.00 43 1007.9
20260509200714 74 165 2.0 3.0 0.00 0.00 0.00 48 1008.0
20260509200209 74 165 2.0 3.0 0.00 0.00 0.00 48 1008.1
20260509195705 74 165 2.0 3.0 0.00 0.00 0.00 48 1008.1
20260509195201 73 251 1.0 2.0 0.00 0.00 0.00 46 1007.8
20260509194701 73 145 3.0 3.0 0.00 0.00 0.00 44 1007.9
20260509194158 72 11 2.0 3.0 0.00 0.00 0.00 46 1008.0
20260509193654 72 11 2.0 4.0 0.00 0.00 0.00 46 1008.0
20260509193149 73 123 5.0 6.0 0.00 0.00 0.00 44 1008.0
20260509192646 73 252 4.0 5.0 0.00 0.00 0.00 46 1008.2
20260509192141 73 278 2.0 2.0 0.00 0.00 0.00 44 1008.1
20260509191641 73 259 2.0 3.0 0.00 0.00 0.00 47 1008.2
20260509191138 71 214 2.0 3.0 0.00 0.00 0.00 45 1008.2
20260509190634 71 214 2.0 3.0 0.00 0.00 0.00 45 1008.3
20260509190132 72 136 6.0 6.0 0.00 0.00 0.00 47 1008.6
20260509185630 70 101 5.0 5.0 0.00 0.00 0.00 46 1008.4
20260509185125 70 101 5.0 5.0 0.00 0.00 0.00 46 1008.4
20260509184624 70 101 5.0 5.0 0.00 0.00 0.00 46 1008.6
20260509184120 70 101 5.0 5.0 0.00 0.00 0.00 46 1008.8
20260509183616 70 101 5.0 5.0 0.00 0.00 0.00 46 1008.9
20260509183112 71 86 2.0 4.0 0.00 0.00 0.00 46 1008.8
20260509182608 71 97 3.0 4.0 0.00 0.00 0.00 45 1008.4
20260509182105 71 134 0.0 2.0 0.00 0.00 0.00 47 1008.6
20260509181603 72 63 3.0 4.0 0.00 0.00 0.00 45 1008.8
20260509181100 72 63 3.0 4.0 0.00 0.00 0.00 45 1009.0
20260509180556 72 63 3.0 4.0 0.00 0.00 0.00 45 1009.2
20260509180054 70 317 2.0 2.0 0.00 0.00 0.00 52 1009.1
20260509175548 69 297 2.0 2.0 0.00 0.00 0.00 48 1009.6
20260509175046 69 157 2.0 2.0 0.00 0.00 0.00 46 1009.3
20260509174543 69 182 1.0 3.0 0.00 0.00 0.00 46 1009.4
20260509174038 68 185 0.0 1.0 0.00 0.00 0.00 47 1009.4
20260509173538 68 340 2.0 2.0 0.00 0.00 0.00 47 1009.8
20260509173034 68 306 0.0 2.0 0.00 0.00 0.00 48 1009.9
20260509172532 67 262 2.0 2.0 0.00 0.00 0.00 47 1010.0
20260509172027 67 61 0.0 0.0 0.00 0.00 0.00 46 1009.9
20260509171523 67 249 3.0 3.0 0.00 0.00 0.00 45 1010.0
20260509171020 67 158 0.0 3.0 0.00 0.00 0.00 46 1010.2
20260509170515 67 99 4.0 4.0 0.00 0.00 0.00 44 1010.3
20260509170012 68 128 4.0 4.0 0.00 0.00 0.00 43 1010.2
20260509165510 69 102 6.0 7.0 0.00 0.00 0.00 42 1010.2
20260509165006 69 354 2.0 2.0 0.00 0.00 0.00 46 1010.2
20260509164502 69 33 2.0 4.0 0.00 0.00 0.00 42 1010.2
20260509163958 69 304 2.0 2.0 0.00 0.00 0.00 43 1010.2
20260509163456 68 299 1.0 2.0 0.00 0.00 0.00 44 1010.2
20260509162954 67 12 0.0 0.0 0.00 0.00 0.00 46 1010.2
20260509162454 66 1 3.0 3.0 0.00 0.00 0.00 45 1010.0
20260509161949 67 29 1.0 3.0 0.00 0.00 0.00 44 1009.9
20260509161446 68 23 4.0 5.0 0.00 0.00 0.00 47 1010.0
20260509160941 67 40 2.0 2.0 0.00 0.00 0.00 47 1010.0
20260509160438 67 47 2.0 2.0 0.00 0.00 0.00 44 1010.2
20260509155932 68 105 6.0 6.0 0.00 0.00 0.00 44 1010.0
20260509155429 68 103 2.0 5.0 0.00 0.00 0.00 44 1010.0
20260509154926 67 72 0.0 2.0 0.00 0.00 0.00 47 1010.2
20260509154422 66 6 4.0 5.0 0.00 0.00 0.00 45 1010.0
20260509153920 66 6 4.0 5.0 0.00 0.00 0.00 45 1010.1
20260509153416 66 311 1.0 2.0 0.00 0.00 0.00 47 1010.3
20260509152913 66 258 2.0 4.0 0.00 0.00 0.00 48 1010.2
20260509152409 66 258 2.0 4.0 0.00 0.00 0.00 48 1010.4
20260509151907 65 162 1.0 2.0 0.00 0.00 0.00 48 1010.6
20260509151402 64 3 2.0 2.0 0.00 0.00 0.00 54 1010.4
20260509150901 64 284 3.0 3.0 0.00 0.00 0.00 48 1010.3
20260509150358 62 96 3.0 3.0 0.00 0.00 0.00 50 1010.3
20260509145856 62 96 3.0 3.0 0.00 0.00 0.00 50 1010.5
20260509145350 62 96 3.0 3.0 0.00 0.00 0.00 50 1010.6
20260509144847 63 122 2.0 2.0 0.00 0.00 0.00 50 1010.4
20260509144344 63 44 0.0 0.0 0.00 0.00 0.00 54 1010.9
20260509143841 62 100 3.0 3.0 0.00 0.00 0.00 53 1010.7
20260509143338 62 288 2.0 4.0 0.00 0.00 0.00 55 1010.6
20260509142834 62 231 3.0 4.0 0.00 0.00 0.00 55 1010.9
20260509142330 61 14 0.0 1.0 0.00 0.00 0.00 54 1010.9
20260509141826 61 262 2.0 3.0 0.00 0.00 0.00 54 1010.7
20260509141328 61 173 1.0 2.0 0.00 0.00 0.00 54 1010.9
20260509140820 61 199 1.0 2.0 0.00 0.00 0.00 53 1011.0
20260509140317 60 208 0.0 3.0 0.00 0.00 0.00 54 1011.1
20260509135815 61 207 0.0 1.0 0.00 0.00 0.00 58 1010.9
20260509135312 60 275 2.0 2.0 0.00 0.00 0.00 55 1010.8
20260509134809 58 200 0.0 0.0 0.00 0.00 0.00 58 1010.8
20260509134307 58 200 0.0 0.0 0.00 0.00 0.00 58 1010.8
20260509133804 58 200 0.0 0.0 0.00 0.00 0.00 58 1010.7
20260509133300 58 200 0.0 0.0 0.00 0.00 0.00 58 1010.7
20260509132759 58 200 0.0 0.0 0.00 0.00 0.00 58 1010.8
20260509132257 58 139 0.0 1.0 0.00 0.00 0.00 66 1010.6
20260509131753 58 76 0.0 0.0 0.00 0.00 0.00 68 1010.7
20260509131250 58 76 0.0 0.0 0.00 0.00 0.00 68 1011.0
20260509130746 58 76 0.0 0.0 0.00 0.00 0.00 68 1011.0
20260509130242 58 34 2.0 2.0 0.00 0.00 0.00 67 1011.0
20260509125739 58 60 0.0 0.0 0.00 0.00 0.00 65 1011.0
20260509125236 57 288 1.0 1.0 0.00 0.00 0.00 67 1010.9
20260509124732 57 158 0.0 0.0 0.00 0.00 0.00 72 1011.0
20260509124229 57 189 0.0 1.0 0.00 0.00 0.00 71 1011.0
20260509123727 57 30 0.0 1.0 0.00 0.00 0.00 67 1011.1
20260509123224 56 218 0.0 0.0 0.00 0.00 0.00 71 1010.8
20260509122719 56 350 0.0 1.0 0.00 0.00 0.00 70 1010.9
20260509122216 56 195 0.0 0.0 0.00 0.00 0.00 67 1010.9
20260509121713 56 218 0.0 0.0 0.00 0.00 0.00 68 1011.1
20260509121211 56 227 0.0 0.0 0.00 0.00 0.00 68 1010.8
20260509120709 56 342 0.0 2.0 0.00 0.00 0.00 65 1010.9
20260509120206 55 261 0.0 1.0 0.00 0.00 0.00 68 1011.0
20260509115704 55 342 0.0 1.0 0.00 0.00 0.00 71 1010.8
20260509115201 56 163 1.0 1.0 0.00 0.00 0.00 68 1010.7
20260509114659 55 14 0.0 1.0 0.00 0.00 0.00 62 1010.8
20260509114158 55 18 1.0 2.0 0.00 0.00 0.00 62 1010.7
20260509113656 55 15 1.0 1.0 0.00 0.00 0.00 63 1010.5
20260509113153 55 89 0.0 0.0 0.00 0.00 0.00 62 1010.5
20260509112649 55 62 0.0 0.0 0.00 0.00 0.00 61 1010.5
20260509112147 55 169 0.0 0.0 0.00 0.00 0.00 60 1010.3
20260509111644 55 169 0.0 0.0 0.00 0.00 0.00 60 1010.1
20260509111140 55 142 0.0 1.0 0.00 0.00 0.00 64 1010.2
20260509110638 56 169 0.0 0.0 0.00 0.00 0.00 60 1010.1
20260509110135 56 4 0.0 0.0 0.00 0.00 0.00 58 1010.1
20260509105633 56 355 0.0 2.0 0.00 0.00 0.00 57 1010.1
20260509105130 56 319 0.0 2.0 0.00 0.00 0.00 58 1010.1
20260509104627 55 11 0.0 0.0 0.00 0.00 0.00 60 1010.3
20260509104123 55 338 0.0 0.0 0.00 0.00 0.00 61 1010.2
20260509103621 55 6 0.0 0.0 0.00 0.00 0.00 66 1010.2
20260509103119 54 162 2.0 2.0 0.00 0.00 0.00 65 1010.2
20260509102616 0 0.0 0.0 0.00 0.00 0.00 1010.2
20260509102113 0 0.0 0.0 0.00 0.00 0.00 1010.3
20260509101609 0 0.0 0.0 0.00 0.00 0.00 1010.4
20260509101106 0 0.0 0.0 0.00 0.00 0.00 1010.3
20260509100603 0 0.0 0.0 0.00 0.00 0.00 1010.2
20260509100101 0 0.0 0.0 0.00 0.00 0.00 1010.3
20260509095557 0 0.0 0.0 0.00 0.00 0.00 1010.1
20260509095055 0 0.0 0.0 0.00 0.00 0.00 1010.3
20260509094551 0 0.0 0.0 0.00 0.00 0.00 1010.1
20260509094048 0 0.0 0.0 0.00 0.00 0.00 1010.2
20260509093547 0 0.0 0.0 0.00 0.00 0.00 1010.4
20260509093044 0 0.0 0.0 0.00 0.00 0.00 1010.3
20260509092541 0 0.0 0.0 0.00 0.00 0.00 1010.2
20260509092040 0 0.0 0.0 0.00 0.00 0.00 1010.2
20260509091537 0 0.0 0.0 0.00 0.00 0.00 1010.3
20260509091033 0 0.0 0.0 0.00 0.00 0.00 1010.4
20260509090531 0 0.0 0.0 0.00 0.00 0.00 1010.3
20260509090029 0 0.0 0.0 0.00 0.00 0.00 1010.3
20260509085525 0 0.0 0.0 0.00 0.00 0.00 1010.3
20260509085021 0 0.0 0.0 0.00 0.00 0.00 1010.5
20260509084519 0 0.0 0.0 0.00 0.00 0.00 1010.5
20260509084016 0 0.0 0.0 0.00 0.00 0.00 1010.4
20260509083513 0 0.0 0.0 0.00 0.00 0.00 1010.4
20260509083009 0 0.0 0.0 0.00 0.00 0.00 1010.2
20260509082507 0 0.0 0.0 0.00 0.00 0.00 1010.4
20260509082004 0 0.0 0.0 0.00 0.00 0.00 1010.6
20260509081501 0 0.0 0.0 0.00 0.00 0.00 1010.4
20260509080958 0 0.0 0.0 0.00 0.00 0.00 1010.5
20260509080456 0 0.0 0.0 0.00 0.00 0.00 1010.6
20260509075954 0 0.0 0.0 0.00 0.00 0.00 1010.6
20260509075451 0 0.0 0.0 0.00 0.00 0.00 1010.5
20260509074949 0 0.0 0.0 0.00 0.00 0.00 1010.5
20260509074446 0 0.0 0.0 0.00 0.00 0.00 1010.7
20260509073942 0 0.0 0.0 0.00 0.00 0.00 1010.7
20260509073438 0 0.0 0.0 0.00 0.00 0.00 1010.6
20260509072935 0 0.0 0.0 0.00 0.00 0.00 1010.6
20260509072432 0 0.0 0.0 0.00 0.00 0.00 1010.6
20260509071929 0 0.0 0.0 0.00 0.00 0.00 1010.7
20260509071425 0 0.0 0.0 0.00 0.00 0.00 1010.5
20260509070923 0 0.0 0.0 0.00 0.00 0.00 1010.4
20260509070420 0 0.0 0.0 0.00 0.00 0.00 1010.7
20260509065915 0 0.0 0.0 0.00 0.00 0.00 1010.6
20260509065411 0 0.0 0.0 0.00 0.00 0.00 1010.7
20260509064908 0 0.0 0.0 0.00 0.00 0.00 1010.7
20260509064406 0 0.0 0.0 0.00 0.00 0.00 1010.8
20260509063903 0 0.0 0.0 0.00 0.00 0.00 1010.7
20260509063359 0 0.0 0.0 0.00 0.00 0.00 1010.9
20260509062856 0 0.0 0.0 0.00 0.00 0.00 1011.0
20260509062353 0 0.0 0.0 0.00 0.00 0.00 1010.9
20260509061850 0 0.0 0.0 0.00 0.00 0.00 1011.2
20260509061349 0 0.0 0.0 0.00 0.00 0.00 1011.1
20260509060845 0 0.0 0.0 0.00 0.00 0.00 1011.0
20260509060342 0 0.0 0.0 0.00 0.00 0.00 1010.9
20260509055837 0 0.0 0.0 0.00 0.00 0.00 1010.9
20260509055333 0 0.0 0.0 0.00 0.00 0.00 1011.1
20260509054830 0 0.0 0.0 0.00 0.00 0.00 1011.2
20260509054327 0 0.0 0.0 0.00 0.00 0.00 1011.4
20260509053825 0 0.0 0.0 0.00 0.00 0.00 1011.2
20260509053322 0 0.0 0.0 0.00 0.00 0.00 1011.2
20260509052820 0 0.0 0.0 0.00 0.00 0.00 1011.4
20260509052317 0 0.0 0.0 0.00 0.00 0.00 1011.3
20260509051815 0 0.0 0.0 0.00 0.00 0.00 1011.3
20260509051313 0 0.0 0.0 0.00 0.00 0.00 1011.3
20260509050809 0 0.0 0.0 0.00 0.00 0.00 1011.4
20260509050306 0 0.0 0.0 0.00 0.00 0.00 1011.3
20260509045803 0 0.0 0.0 0.00 0.00 0.00 1011.4
20260509045300 0 0.0 0.0 0.00 0.00 0.00 1011.3
20260509044757 0 0.0 0.0 0.00 0.00 0.00 1011.2
20260509044255 0 0.0 0.0 0.00 0.00 0.00 1011.2
20260509043751 0 0.0 0.0 0.00 0.00 0.00 1011.3
20260509043247 0 0.0 0.0 0.00 0.00 0.00 1011.3
20260509042743 0 0.0 0.0 0.00 0.00 0.00 1011.2
20260509042240 0 0.0 0.0 0.00 0.00 0.00 1011.4
20260509041736 0 0.0 0.0 0.00 0.00 0.00 1011.4
20260509041233 0 0.0 0.0 0.00 0.00 0.00 1011.3
20260509040732 0 0.0 0.0 0.00 0.00 0.00 1011.4
20260509040228 0 0.0 0.0 0.00 0.00 0.00 1011.4
20260509035725 0 0.0 0.0 0.00 0.00 0.00 1011.5
20260509035222 0 0.0 0.0 0.00 0.00 0.00 1011.3
20260509034719 0 0.0 0.0 0.00 0.00 0.00 1011.3
20260509034217 0 0.0 0.0 0.00 0.00 0.00 1011.2
20260509033714 0 0.0 0.0 0.00 0.00 0.00 1011.3
20260509033211 0 0.0 0.0 0.00 0.00 0.00 1011.5
20260509032708 0 0.0 0.0 0.00 0.00 0.00 1011.3
20260509032205 0 0.0 0.0 0.00 0.00 0.00 1011.4
20260509031702 0 0.0 0.0 0.00 0.00 0.00 1011.5
20260509031159 0 0.0 0.0 0.00 0.00 0.00 1011.5
20260509030658 0 0.0 0.0 0.00 0.00 0.00 1011.5
20260509030155 53 269 0.0 0.0 0.00 0.01 0.01 65 1011.6
20260509025650 53 269 0.0 0.0 0.00 0.01 0.01 65 1011.6
20260509025147 53 269 0.0 0.0 0.00 0.01 0.01 65 1011.7
20260509024642 53 269 0.0 0.0 0.00 0.01 0.01 65 1011.8
20260509024138 53 269 0.0 0.0 0.00 0.01 0.01 65 1011.5
20260509023636 53 269 0.0 0.0 0.00 0.01 0.01 65 1011.7
20260509023133 53 269 0.0 0.0 0.00 0.01 0.01 65 1011.8
20260509022629 53 269 0.0 0.0 0.00 0.01 0.01 65 1011.6
20260509022127 53 269 0.0 0.0 0.00 0.01 0.01 65 1011.7
20260509021624 53 269 0.0 0.0 0.00 0.01 0.01 65 1011.8
20260509021121 53 269 0.0 0.0 0.00 0.01 0.01 65 1011.6
20260509020619 53 269 0.0 0.0 0.00 0.01 0.01 65 1011.7
20260509020115 58 166 0.0 0.0 0.00 0.01 0.01 52 1011.5
20260509015615 58 166 0.0 0.0 0.00 0.01 0.01 52 1011.6
20260509015112 58 166 0.0 0.0 0.00 0.01 0.01 52 1011.4
20260509014608 58 166 0.0 0.0 0.00 0.01 0.01 52 1011.6
20260509014105 58 166 0.0 0.0 0.00 0.01 0.01 52 1011.4
20260509013602 58 166 0.0 0.0 0.00 0.01 0.01 52 1011.4
20260509013057 58 166 0.0 0.0 0.00 0.01 0.01 52 1011.4
20260509012554 58 166 0.0 0.0 0.00 0.01 0.01 52 1011.5
20260509012051 58 166 0.0 0.0 0.00 0.01 0.01 52 1011.5
20260509011549 58 166 0.0 0.0 0.00 0.01 0.01 52 1011.6
20260509011046 58 166 0.0 0.0 0.00 0.01 0.01 52 1011.4
20260509010544 61 348 1.0 1.0 0.00 0.01 0.01 46 1011.3
20260509010040 61 348 1.0 1.0 0.00 0.01 0.01 46 1011.3
20260509005538 61 348 1.0 1.0 0.00 0.01 0.01 46 1011.3
20260509005038 61 348 1.0 1.0 0.00 0.01 0.01 46 1011.1
20260509004535 61 348 1.0 1.0 0.00 0.01 0.01 46 1011.3
20260509004032 61 348 1.0 1.0 0.00 0.01 0.01 46 1011.3
20260509003530 63 232 0.0 0.0 0.00 0.01 0.01 46 1011.0
20260509003027 63 232 0.0 0.0 0.00 0.01 0.01 46 1011.1
20260509002525 64 47 0.0 0.0 0.00 0.01 0.01 48 1011.1
20260509002022 64 358 0.0 0.0 0.00 0.01 0.01 48 1011.2
20260509001519 64 272 0.0 1.0 0.00 0.01 0.01 44 1011.0
20260509001015 64 272 0.0 1.0 0.00 0.01 0.01 44 1011.1
20260509000514 64 85 0.0 0.0 0.00 0.01 0.01 46 1010.9
20260509000009 64 312 0.0 1.0 0.00 0.01 0.01 44 1011.1
20260508235507 65 62 0.0 2.0 0.00 0.01 0.01 44 1010.8
20260508235003 65 168 0.0 1.0 0.00 0.01 0.01 44 1010.8
20260508234500 66 207 0.0 1.0 0.00 0.01 0.01 44 1010.8
20260508233958 67 343 0.0 0.0 0.00 0.01 0.01 42 1010.6
20260508233457 67 343 0.0 0.0 0.00 0.01 0.01 40 1010.6
20260508232954 68 164 0.0 2.0 0.00 0.01 0.01 36 1010.7
20260508232451 68 171 1.0 1.0 0.00 0.01 0.01 35 1010.7
20260508231948 68 169 0.0 1.0 0.00 0.01 0.01 35 1010.8
20260508231445 68 179 0.0 1.0 0.00 0.01 0.01 31 1010.5
20260508230942 69 271 0.0 1.0 0.00 0.01 0.01 31 1010.5
20260508230438 69 350 0.0 4.0 0.00 0.01 0.01 31 1010.5
20260508225935 69 251 0.0 2.0 0.00 0.01 0.01 30 1010.6
20260508225432 70 316 0.0 1.0 0.00 0.01 0.01 28 1010.6
20260508224930 70 13 0.0 2.0 0.00 0.01 0.01 27 1010.4
20260508224427 70 233 0.0 2.0 0.00 0.01 0.01 26 1010.4
20260508223924 71 343 0.0 2.0 0.00 0.01 0.01 25 1010.6
20260508223422 72 274 1.0 2.0 0.00 0.01 0.01 28 1010.3
20260508222919 73 287 0.0 2.0 0.00 0.01 0.01 26 1010.3
20260508222417 73 9 3.0 3.0 0.00 0.01 0.01 26 1010.4
20260508221913 73 155 0.0 3.0 0.00 0.01 0.01 29 1010.3
20260508221408 72 216 0.0 2.0 0.00 0.01 0.01 27 1010.3
20260508220905 70 272 2.0 2.0 0.00 0.01 0.01 30 1010.4
20260508220402 70 353 0.0 2.0 0.00 0.01 0.01 31 1010.5
20260508215858 70 23 0.0 2.0 0.00 0.01 0.01 28 1010.4
20260508215355 70 267 0.0 3.0 0.00 0.01 0.01 28 1010.6
20260508214852 70 219 1.0 2.0 0.00 0.01 0.01 27 1010.6
20260508214349 71 172 1.0 2.0 0.00 0.01 0.01 30 1010.7
20260508213845 71 258 2.0 4.0 0.00 0.01 0.01 26 1010.6
20260508213343 73 255 0.0 3.0 0.00 0.01 0.01 26 1010.4
20260508212838 74 16 2.0 3.0 0.00 0.01 0.01 27 1010.6
20260508212335 73 102 1.0 2.0 0.00 0.01 0.01 27 1010.6
20260508211831 73 305 1.0 3.0 0.00 0.01 0.01 27 1010.5
20260508211327 73 236 3.0 6.0 0.00 0.01 0.01 26 1010.6
20260508210825 73 187 2.0 4.0 0.00 0.01 0.01 25 1010.6
20260508210321 73 168 4.0 4.0 0.00 0.01 0.01 27 1010.8
20260508205818 72 289 1.0 3.0 0.00 0.01 0.01 26 1010.8
20260508205314 73 330 2.0 4.0 0.00 0.01 0.01 27 1010.7
20260508204811 74 292 2.0 4.0 0.00 0.01 0.01 28 1010.6
20260508204308 73 298 2.0 5.0 0.00 0.01 0.01 30 1010.6
20260508203804 74 331 4.0 5.0 0.00 0.01 0.01 24 1010.8
20260508203300 74 200 2.0 4.0 0.00 0.01 0.01 27 1010.7
20260508202755 73 164 3.0 4.0 0.00 0.01 0.01 29 1010.6
20260508202253 71 176 3.0 5.0 0.00 0.01 0.01 30 1011.0